| time (UTC) | temp F | wind direction | speed knots | gust knots | rain 1hr in | rain 24hr in | rain mn in | humidity % | barometer mb |
| 20260504050300 | 48 | 0 | 48.7 | 65.2 | 0.00 | 0.00 | 0.00 | 73 | 1012.6 |
| 20260504045300 | 47 | 0 | 48.7 | 65.2 | 0.00 | 0.00 | 0.00 | 73 | 1012.6 |
| 20260504044300 | 46 | 0 | 48.7 | 65.2 | 0.00 | 0.00 | 0.00 | 73 | 1012.4 |
| 20260504043300 | 46 | 0 | 48.7 | 65.2 | 0.00 | 0.00 | 0.00 | 73 | 1012.3 |
| 20260504042259 | 46 | 0 | 48.7 | 65.2 | 0.00 | 0.00 | 0.00 | 73 | 1012.2 |
| 20260504041259 | 45 | 0 | 48.7 | 65.2 | 0.00 | 0.00 | 0.00 | 73 | 1012.3 |
| 20260504040259 | 45 | 202 | 48.7 | 65.2 | 0.00 | 0.00 | 0.00 | 73 | 1012.4 |
| 20260504035259 | 45 | 202 | 48.7 | 65.2 | 0.00 | 0.00 | 0.00 | 73 | 1012.4 |
| 20260504034259 | 45 | 0 | 48.7 | 65.2 | 0.00 | 0.00 | 0.00 | 73 | 1012.3 |
| 20260504033259 | 45 | 0 | 48.7 | 65.2 | 0.00 | 0.00 | 0.00 | 73 | 1012.3 |
| 20260504032259 | 45 | 0 | 48.7 | 65.2 | 0.00 | 0.00 | 0.00 | 73 | 1012.3 |
| 20260504031259 | 45 | 0 | 48.7 | 65.2 | 0.00 | 0.00 | 0.00 | 73 | 1012.3 |
| 20260504030259 | 45 | 202 | 48.7 | 65.2 | 0.00 | 0.00 | 0.00 | 73 | 1012.3 |
| 20260504025259 | 46 | 0 | 48.7 | 65.2 | 0.00 | 0.00 | 0.00 | 72 | 1012.3 |
| 20260504024259 | 46 | 0 | 48.7 | 65.2 | 0.00 | 0.00 | 0.00 | 73 | 1012.2 |
| 20260504023258 | 46 | 202 | 48.7 | 65.2 | 0.00 | 0.00 | 0.00 | 72 | 1012.2 |
| 20260504022258 | 46 | 0 | 48.7 | 65.2 | 0.00 | 0.00 | 0.00 | 72 | 1012.2 |
| 20260504021258 | 46 | 0 | 48.7 | 65.2 | 0.00 | 0.00 | 0.00 | 72 | 1012.3 |
| 20260504020258 | 46 | 0 | 48.7 | 65.2 | 0.00 | 0.00 | 0.00 | 72 | 1012.2 |
| 20260504015258 | 46 | 0 | 48.7 | 65.2 | 0.00 | 0.00 | 0.00 | 72 | 1012.3 |
| 20260504014258 | 47 | 202 | 48.7 | 65.2 | 0.00 | 0.00 | 0.00 | 72 | 1012.3 |
| 20260504013258 | 47 | 0 | 48.7 | 65.2 | 0.00 | 0.00 | 0.00 | 72 | 1012.3 |
| 20260504012258 | 47 | 0 | 48.7 | 65.2 | 0.00 | 0.00 | 0.00 | 72 | 1012.3 |
| 20260504011258 | 47 | 0 | 48.7 | 65.2 | 0.00 | 0.00 | 0.00 | 72 | 1012.5 |
| 20260504010258 | 47 | 0 | 48.7 | 65.2 | 0.00 | 0.00 | 0.00 | 71 | 1012.4 |
| 20260504005258 | 48 | 0 | 48.7 | 65.2 | 0.00 | 0.00 | 0.00 | 71 | 1012.4 |
| 20260504004258 | 48 | 0 | 48.7 | 65.2 | 0.00 | 0.00 | 0.00 | 70 | 1012.5 |
| 20260504003257 | 48 | 0 | 48.7 | 65.2 | 0.00 | 0.00 | 0.00 | 70 | 1012.5 |
| 20260504002257 | 48 | 202 | 48.7 | 65.2 | 0.00 | 0.00 | 0.00 | 70 | 1012.5 |
| 20260504001257 | 49 | 0 | 48.7 | 65.2 | 0.00 | 0.00 | 0.00 | 69 | 1012.6 |
| 20260504000257 | 49 | 0 | 48.7 | 65.2 | 0.00 | 0.00 | 0.00 | 69 | 1012.7 |
| 20260503235257 | 49 | 0 | 48.7 | 65.2 | 0.00 | 0.00 | 0.00 | 69 | 1012.7 |
| 20260503234257 | 49 | 0 | 48.7 | 65.2 | 0.00 | 0.00 | 0.00 | 68 | 1012.6 |
| 20260503233257 | 50 | 0 | 48.7 | 65.2 | 0.00 | 0.00 | 0.00 | 68 | 1012.7 |
| 20260503232257 | 50 | 0 | 48.7 | 65.2 | 0.00 | 0.00 | 0.00 | 68 | 1012.7 |
| 20260503231257 | 50 | 0 | 48.7 | 65.2 | 0.00 | 0.00 | 0.00 | 67 | 1012.7 |
| 20260503230257 | 51 | 0 | 48.7 | 65.2 | 0.00 | 0.00 | 0.00 | 66 | 1012.6 |
| 20260503225257 | 51 | 0 | 48.7 | 65.2 | 0.00 | 0.00 | 0.00 | 66 | 1012.7 |
| 20260503224256 | 51 | 0 | 48.7 | 65.2 | 0.00 | 0.00 | 0.00 | 65 | 1012.7 |
| 20260503223256 | 51 | 0 | 48.7 | 65.2 | 0.00 | 0.00 | 0.00 | 64 | 1012.7 |
| 20260503222256 | 52 | 0 | 48.7 | 65.2 | 0.00 | 0.00 | 0.00 | 64 | 1012.8 |
| 20260503221256 | 52 | 0 | 48.7 | 65.2 | 0.00 | 0.00 | 0.00 | 63 | 1012.7 |
| 20260503220256 | 52 | 0 | 48.7 | 65.2 | 0.00 | 0.00 | 0.00 | 62 | 1012.8 |
| 20260503215256 | 53 | 0 | 48.7 | 65.2 | 0.00 | 0.00 | 0.00 | 61 | 1012.7 |
| 20260503214256 | 53 | 0 | 48.7 | 65.2 | 0.00 | 0.00 | 0.00 | 59 | 1012.8 |
| 20260503213256 | 54 | 0 | 48.7 | 65.2 | 0.00 | 0.00 | 0.00 | 59 | 1012.7 |
| 20260503212256 | 54 | 0 | 48.7 | 65.2 | 0.00 | 0.00 | 0.00 | 58 | 1012.6 |
| 20260503211256 | 55 | 0 | 48.7 | 65.2 | 0.00 | 0.00 | 0.00 | 57 | 1012.8 |
| 20260503210256 | 55 | 0 | 48.7 | 65.2 | 0.00 | 0.00 | 0.00 | 56 | 1012.7 |
| 20260503205256 | 56 | 0 | 48.7 | 65.2 | 0.00 | 0.00 | 0.00 | 56 | 1012.6 |
| 20260503204255 | 56 | 0 | 48.7 | 65.2 | 0.00 | 0.00 | 0.00 | 55 | 1012.7 |
| 20260503203255 | 57 | 0 | 48.7 | 65.2 | 0.00 | 0.00 | 0.00 | 55 | 1012.6 |
| 20260503202255 | 57 | 0 | 48.7 | 65.2 | 0.00 | 0.00 | 0.00 | 54 | 1012.6 |
| 20260503201255 | 58 | 0 | 48.7 | 65.2 | 0.00 | 0.00 | 0.00 | 53 | 1012.6 |
| 20260503200255 | 59 | 0 | 48.7 | 65.2 | 0.00 | 0.00 | 0.00 | 52 | 1012.6 |
| 20260503195255 | 59 | 0 | 48.7 | 65.2 | 0.00 | 0.00 | 0.00 | 51 | 1012.7 |
| 20260503194255 | 60 | 0 | 48.7 | 65.2 | 0.00 | 0.00 | 0.00 | 51 | 1012.8 |
| 20260503193255 | 61 | 0 | 48.7 | 65.2 | 0.00 | 0.00 | 0.00 | 50 | 1012.7 |
| 20260503192255 | 61 | 0 | 48.7 | 65.2 | 0.00 | 0.00 | 0.00 | 48 | 1012.6 |
| 20260503191255 | 62 | 0 | 48.7 | 65.2 | 0.00 | 0.00 | 0.00 | 48 | 1012.6 |
| 20260503190255 | 63 | 0 | 48.7 | 65.2 | 0.00 | 0.00 | 0.00 | 47 | 1012.6 |
| 20260503185255 | 64 | 0 | 48.7 | 65.2 | 0.00 | 0.00 | 0.00 | 46 | 1012.6 |
| 20260503184254 | 66 | 202 | 48.7 | 65.2 | 0.00 | 0.00 | 0.00 | 44 | 1012.4 |
| 20260503183254 | 66 | 0 | 48.7 | 65.2 | 0.00 | 0.00 | 0.00 | 43 | 1012.4 |
| 20260503182254 | 68 | 0 | 48.7 | 65.2 | 0.00 | 0.00 | 0.00 | 42 | 1012.3 |
| 20260503181254 | 69 | 0 | 48.7 | 65.2 | 0.00 | 0.00 | 0.00 | 41 | 1012.2 |
| 20260503180254 | 69 | 202 | 48.7 | 65.2 | 0.00 | 0.00 | 0.00 | 39 | 1012.3 |
| 20260503175254 | 71 | 202 | 48.7 | 65.2 | 0.00 | 0.00 | 0.00 | 38 | 1012.2 |
| 20260503174254 | 71 | 0 | 48.7 | 65.2 | 0.00 | 0.00 | 0.00 | 36 | 1012.1 |
| 20260503173254 | 73 | 0 | 48.7 | 65.2 | 0.00 | 0.00 | 0.00 | 35 | 1012.2 |
| 20260503172254 | 73 | 0 | 48.7 | 65.2 | 0.00 | 0.00 | 0.00 | 34 | 1012.2 |
| 20260503171254 | 74 | 0 | 48.7 | 65.2 | 0.00 | 0.00 | 0.00 | 34 | 1012.2 |
| 20260503170254 | 75 | 180 | 48.7 | 65.2 | 0.00 | 0.00 | 0.00 | 33 | 1012.0 |
| 20260503150252 | 80 | 0 | 48.7 | 65.2 | 0.00 | 0.00 | 0.00 | 31 | 1012.7 |
| 20260503140252 | 81 | 0 | 48.7 | 65.2 | 0.00 | 0.00 | 0.00 | 29 | 1013.4 |
| 20260503131252 | 80 | 0 | 48.7 | 65.2 | 0.00 | 0.00 | 0.00 | 30 | 1014.0 |
| 20260503130251 | 80 | 0 | 48.7 | 65.2 | 0.00 | 0.00 | 0.00 | 30 | 1014.2 |
| 20260503110250 | 75 | 0 | 48.7 | 65.2 | 0.00 | 0.02 | 0.00 | 34 | 1015.4 |
| 20260503100250 | 74 | 0 | 48.7 | 65.2 | 0.00 | 0.02 | 0.00 | 37 | 1016.1 |
| 20260503090249 | 72 | 0 | 48.7 | 65.2 | 0.00 | 0.02 | 0.00 | 40 | 1016.7 |
| 20260503081249 | 69 | 45 | 48.7 | 65.2 | 0.00 | 0.02 | 0.00 | 47 | 1016.9 |
| 20260503080249 | 68 | 0 | 48.7 | 65.2 | 0.00 | 0.02 | 0.00 | 49 | 1016.7 |
| 20260503072249 | 61 | 0 | 48.7 | 65.2 | 0.00 | 0.02 | 0.00 | 58 | 1016.9 |
| 20260503071248 | 60 | 0 | 48.7 | 65.2 | 0.00 | 0.02 | 0.00 | 58 | 1017.0 |
| 20260503070248 | 59 | 0 | 48.7 | 65.2 | 0.00 | 0.02 | 0.00 | 59 | 1017.0 |